This is the latest recevied weather packets stored in our database for station/object KD9JJA. If no packets are shown the sender has not sent any weather packets the latest 10 day(s).
| Time | Temp. | Humidity | Pressure | Rain* | Wind** | Luminosity | Snow |
|---|---|---|---|---|---|---|---|
| 1777775948 | 6.11° C | 85% | 1020.9 hPa | 0 mm | - | 0 W/m² | - |
| 1777775644 | 6.11° C | 84% | 1020.7 hPa | 0 mm | - | 0 W/m² | - |
| 1777775341 | 6.67° C | 83% | 1020.8 hPa | 0 mm | - | 0 W/m² | - |
| 1777775035 | 6.67° C | 82% | 1020.8 hPa | 0 mm | - | 0 W/m² | - |
| 1777774732 | 6.67° C | 81% | 1020.8 hPa | 0 mm | - | 0 W/m² | - |
| 1777774428 | 6.67° C | 81% | 1020.6 hPa | 0 mm | - | 0 W/m² | - |
| 1777774126 | 6.67° C | 82% | 1020.7 hPa | 0 mm | - | 0 W/m² | - |
| 1777773824 | 7.22° C | 80% | 1020.7 hPa | 0 mm | - | 0 W/m² | - |
| 1777773520 | 7.22° C | 79% | 1020.5 hPa | 0 mm | - | 0 W/m² | - |
| 1777773217 | 7.22° C | 79% | 1020.6 hPa | 0 mm | - | 0 W/m² | - |
| 1777772912 | 7.22° C | 78% | 1020.3 hPa | 0 mm | - | 0 W/m² | - |
| 1777772610 | 7.78° C | 76% | 1020.3 hPa | 0 mm | - | 0 W/m² | - |
| 1777772307 | 7.78° C | 74% | 1020.3 hPa | 0 mm | - | 0 W/m² | - |
| 1777772005 | 8.33° C | 71% | 1020.3 hPa | 0 mm | - | 0 W/m² | - |
| 1777771702 | 8.33° C | 66% | 1020.5 hPa | 0 mm | - | 0 W/m² | - |
| 1777771400 | 8.33° C | 55% | 1020.2 hPa | 0 mm | - | 0 W/m² | - |
| 1777771096 | 8.89° C | 57% | 1020.2 hPa | 0 mm | - | 0 W/m² | - |
| 1777770793 | 8.89° C | 54% | 1020 hPa | 0 mm | - | 0 W/m² | - |
| 1777770489 | 8.89° C | 54% | 1020 hPa | 0 mm | - | 0 W/m² | - |
| 1777770187 | 8.89° C | 55% | 1020.1 hPa | 0 mm | - | 0 W/m² | - |
| 1777769883 | 9.44° C | 53% | 1020 hPa | 0 mm | - | 0 W/m² | - |
| 1777769581 | 9.44° C | 53% | 1020 hPa | 0 mm | - | 0 W/m² | - |
| 1777769276 | 9.44° C | 51% | 1020 hPa | 0 mm | - | 0 W/m² | - |
| 1777768975 | 10° C | 51% | 1019.9 hPa | 0 mm | - | 0 W/m² | - |
| 1777768672 | 10° C | 52% | 1019.8 hPa | 0 mm | - | 0 W/m² | - |
* Rain latest hour (hover to see other rain measurements)
** Current wind speed in m/s (hover to see current wind gust speed)